User: anonymous   Login
Location: Unspecified
(0.0000°N, 0.0000°E)
Time: 21:51:06
(UTC+00:00)
Language:

SLDCOM 1 - Orbit

View from above orbital plane
View from above orbital plane
View from above satellite
View from above satellite

Ground track
Ground track

The orbit data is extracted from the following two-line orbital elements,

1 20641U 90050A   20051.12194967 0.00000000  00000-0  00000-0 0    07
2 20641  63.4088 308.5908 4049377 265.0840  48.8100  6.02591890    07
Epoch (UTC): 20 February 2020 02:55:36
Eccentricity: 0.4049377
inclination: 63.4088°
perigee height: 1212 km
apogee height: 11543 km
right ascension of ascending node: 308.5908°
argument of perigee: 265.0840°
revolutions per day: 6.02591890
mean anomaly at epoch: 48.8100°
orbit number at epoch: 0

The dashed part of the orbit path shows where the satellite is in the earth's shadow,  

DLR